Year,Month,Day,Hour,Minute,Value (Times are PST for temperature in C)
2010,08,11,00,00,17.30
2010,08,11,00,01,17.30
2010,08,11,00,02,17.30
2010,08,11,00,03,17.20
2010,08,11,00,04,17.20
2010,08,11,00,05,17.20
2010,08,11,00,06,17.10
2010,08,11,00,07,17.10
2010,08,11,00,08,17.00
2010,08,11,00,09,16.90
2010,08,11,00,10,16.90
2010,08,11,00,11,16.90
2010,08,11,00,12,16.80
2010,08,11,00,13,16.80
2010,08,11,00,14,16.80
2010,08,11,00,15,16.70
2010,08,11,00,16,16.70
2010,08,11,00,17,16.70
2010,08,11,00,18,16.70
2010,08,11,00,19,16.70
2010,08,11,00,20,16.70
2010,08,11,00,21,16.70
2010,08,11,00,22,16.70
2010,08,11,00,23,16.60
2010,08,11,00,24,16.60
2010,08,11,00,25,16.60
2010,08,11,00,26,16.60
2010,08,11,00,27,16.60
2010,08,11,00,28,16.60
2010,08,11,00,29,16.60
2010,08,11,00,30,16.60
2010,08,11,00,31,16.60
2010,08,11,00,32,16.60
2010,08,11,00,33,16.60
2010,08,11,00,34,16.50
2010,08,11,00,35,16.50
2010,08,11,00,36,16.50
2010,08,11,00,37,16.50
2010,08,11,00,38,16.50
2010,08,11,00,39,16.50
2010,08,11,00,40,16.40
2010,08,11,00,41,16.40
2010,08,11,00,42,16.40
2010,08,11,00,43,16.40
2010,08,11,00,44,16.40
2010,08,11,00,45,16.40
2010,08,11,00,46,16.50
2010,08,11,00,47,16.50
2010,08,11,00,48,16.50
2010,08,11,00,49,16.50
2010,08,11,00,50,16.50
2010,08,11,00,51,16.50
2010,08,11,00,52,16.50
2010,08,11,00,53,16.50
2010,08,11,00,54,16.50
2010,08,11,00,55,16.50
2010,08,11,00,56,16.50
2010,08,11,00,57,16.50
2010,08,11,00,58,16.50
2010,08,11,00,59,16.50
2010,08,11,01,00,16.50
2010,08,11,01,01,16.50
2010,08,11,01,02,16.50
2010,08,11,01,03,16.40
2010,08,11,01,04,16.40
2010,08,11,01,05,16.40
2010,08,11,01,06,16.40
2010,08,11,01,07,16.40
2010,08,11,01,08,16.40
2010,08,11,01,09,16.30
2010,08,11,01,10,16.30
2010,08,11,01,11,16.30
2010,08,11,01,12,16.30
2010,08,11,01,13,16.30
2010,08,11,01,14,16.30
2010,08,11,01,15,16.30
2010,08,11,01,16,16.20
2010,08,11,01,17,16.20
2010,08,11,01,18,16.30
2010,08,11,01,19,16.20
2010,08,11,01,20,16.30
2010,08,11,01,21,16.20
2010,08,11,01,22,16.30
2010,08,11,01,23,16.30
2010,08,11,01,24,16.30
2010,08,11,01,25,16.30
2010,08,11,01,26,16.30
2010,08,11,01,27,16.30
2010,08,11,01,28,16.30
2010,08,11,01,29,16.30
2010,08,11,01,30,16.30
2010,08,11,01,31,16.30
2010,08,11,01,32,16.30
2010,08,11,01,33,16.30
2010,08,11,01,34,16.30
2010,08,11,01,35,16.30
2010,08,11,01,36,16.30
2010,08,11,01,37,16.30
2010,08,11,01,38,16.20
2010,08,11,01,39,16.30
2010,08,11,01,40,16.30
2010,08,11,01,41,16.20
2010,08,11,01,42,16.20
2010,08,11,01,43,16.20
2010,08,11,01,44,16.30
2010,08,11,01,45,16.30
2010,08,11,01,46,16.30
2010,08,11,01,47,16.30
2010,08,11,01,48,16.30
2010,08,11,01,49,16.30
2010,08,11,01,50,16.30
2010,08,11,01,51,16.30
2010,08,11,01,52,16.30
2010,08,11,01,53,16.30
2010,08,11,01,54,16.30
2010,08,11,01,55,16.30
2010,08,11,01,56,16.30
2010,08,11,01,57,16.30
2010,08,11,01,58,16.30
2010,08,11,01,59,16.30
2010,08,11,02,00,16.20
2010,08,11,02,01,16.20
2010,08,11,02,02,16.20
2010,08,11,02,03,16.20
2010,08,11,02,04,16.10
2010,08,11,02,05,16.10
2010,08,11,02,06,16.10
2010,08,11,02,07,16.10
2010,08,11,02,08,16.00
2010,08,11,02,09,16.00
2010,08,11,02,10,16.00
2010,08,11,02,11,16.00
2010,08,11,02,12,16.00
2010,08,11,02,13,16.10
2010,08,11,02,14,16.10
2010,08,11,02,15,16.10
2010,08,11,02,16,16.10
2010,08,11,02,17,16.20
2010,08,11,02,18,16.20
2010,08,11,02,19,16.20
2010,08,11,02,20,16.20
2010,08,11,02,21,16.20
2010,08,11,02,22,16.20
2010,08,11,02,23,16.30
2010,08,11,02,24,16.30
2010,08,11,02,25,16.30
2010,08,11,02,26,16.30
2010,08,11,02,27,16.30
2010,08,11,02,28,16.40
2010,08,11,02,29,16.40
2010,08,11,02,30,16.50
2010,08,11,02,31,16.50
2010,08,11,02,32,16.50
2010,08,11,02,33,16.50
2010,08,11,02,34,16.60
2010,08,11,02,35,16.60
2010,08,11,02,36,16.60
2010,08,11,02,37,16.60
2010,08,11,02,38,16.60
2010,08,11,02,39,16.70
2010,08,11,02,40,16.70
2010,08,11,02,41,16.70
2010,08,11,02,42,16.70
2010,08,11,02,43,16.70
2010,08,11,02,44,16.70
2010,08,11,02,45,16.70
2010,08,11,02,46,16.70
2010,08,11,02,47,16.70
2010,08,11,02,48,16.70
2010,08,11,02,49,16.70
2010,08,11,02,50,16.70
2010,08,11,02,51,16.70
2010,08,11,02,52,16.60
2010,08,11,02,53,16.60
2010,08,11,02,54,16.60
2010,08,11,02,55,16.60
2010,08,11,02,56,16.70
2010,08,11,02,57,16.70
2010,08,11,02,58,16.70
2010,08,11,02,59,16.70
2010,08,11,03,00,16.70
2010,08,11,03,01,16.70
2010,08,11,03,02,16.70
2010,08,11,03,03,16.70
2010,08,11,03,04,16.70
2010,08,11,03,05,16.70
2010,08,11,03,06,16.70
2010,08,11,03,07,16.70
2010,08,11,03,08,16.70
2010,08,11,03,09,16.70
2010,08,11,03,10,16.70
2010,08,11,03,11,16.70
2010,08,11,03,12,16.70
2010,08,11,03,13,16.70
2010,08,11,03,14,16.70
2010,08,11,03,15,16.70
2010,08,11,03,16,16.70
2010,08,11,03,17,16.60
2010,08,11,03,18,16.60
2010,08,11,03,19,16.60
2010,08,11,03,20,16.60
2010,08,11,03,21,16.60
2010,08,11,03,22,16.60
2010,08,11,03,23,16.60
2010,08,11,03,24,16.60
2010,08,11,03,25,16.60
2010,08,11,03,26,16.60
2010,08,11,03,27,16.60
2010,08,11,03,28,16.60
2010,08,11,03,29,16.60
2010,08,11,03,30,16.60
2010,08,11,03,31,16.60
2010,08,11,03,32,16.60
2010,08,11,03,33,16.60
2010,08,11,03,34,16.60
2010,08,11,03,35,16.60
2010,08,11,03,36,16.50
2010,08,11,03,37,16.60
2010,08,11,03,38,16.60
2010,08,11,03,39,16.60
2010,08,11,03,40,16.60
2010,08,11,03,41,16.60
2010,08,11,03,42,16.50
2010,08,11,03,43,16.50
2010,08,11,03,44,16.50
2010,08,11,03,45,16.50
2010,08,11,03,46,16.40
2010,08,11,03,47,16.40
2010,08,11,03,48,16.40
2010,08,11,03,49,16.40
2010,08,11,03,50,16.40
2010,08,11,03,51,16.40
2010,08,11,03,52,16.40
2010,08,11,03,53,16.30
2010,08,11,03,54,16.30
2010,08,11,03,55,16.30
2010,08,11,03,56,16.30
2010,08,11,03,57,16.30
2010,08,11,03,58,16.30
2010,08,11,03,59,16.30
2010,08,11,04,00,16.30
2010,08,11,04,01,16.30
2010,08,11,04,02,16.30
2010,08,11,04,03,16.30
2010,08,11,04,04,16.30
2010,08,11,04,05,16.30
2010,08,11,04,06,16.30
2010,08,11,04,07,16.30
2010,08,11,04,08,16.30
2010,08,11,04,09,16.30
2010,08,11,04,10,16.30
2010,08,11,04,11,16.30
2010,08,11,04,12,16.30
2010,08,11,04,13,16.40
2010,08,11,04,14,16.40
2010,08,11,04,15,16.40
2010,08,11,04,16,16.40
2010,08,11,04,17,16.40
2010,08,11,04,18,16.40
2010,08,11,04,19,16.40
2010,08,11,04,20,16.30
2010,08,11,04,21,16.30
2010,08,11,04,22,16.30
2010,08,11,04,23,16.30
2010,08,11,04,24,16.30
2010,08,11,04,25,16.30
2010,08,11,04,26,16.30
2010,08,11,04,27,16.30
2010,08,11,04,28,16.20
2010,08,11,04,29,16.20
2010,08,11,04,30,16.20
2010,08,11,04,31,16.20
2010,08,11,04,32,16.20
2010,08,11,04,33,16.20
2010,08,11,04,34,16.20
2010,08,11,04,35,16.20
2010,08,11,04,36,16.20
2010,08,11,04,37,16.20
2010,08,11,04,38,16.20
2010,08,11,04,39,16.20
2010,08,11,04,40,16.20
2010,08,11,04,41,16.10
2010,08,11,04,42,16.10
2010,08,11,04,43,16.10
2010,08,11,04,44,16.10
2010,08,11,04,45,16.10
2010,08,11,04,46,16.10
2010,08,11,04,47,16.10
2010,08,11,04,48,16.10
2010,08,11,04,49,16.10
2010,08,11,04,50,16.00
2010,08,11,04,51,16.00
2010,08,11,04,52,16.00
2010,08,11,04,53,16.00
2010,08,11,04,54,16.00
2010,08,11,04,55,16.00
2010,08,11,04,56,16.00
2010,08,11,04,57,16.00
2010,08,11,04,58,16.00
2010,08,11,04,59,16.00
2010,08,11,05,00,16.00
2010,08,11,05,01,15.90
2010,08,11,05,02,15.90
2010,08,11,05,03,15.90
2010,08,11,05,04,15.90
2010,08,11,05,05,15.90
2010,08,11,05,06,15.90
2010,08,11,05,07,15.90
2010,08,11,05,08,15.90
2010,08,11,05,09,15.90
2010,08,11,05,10,15.90
2010,08,11,05,11,15.90
2010,08,11,05,12,15.90
2010,08,11,05,13,15.90
2010,08,11,05,14,15.90
2010,08,11,05,15,15.90
2010,08,11,05,16,15.90
2010,08,11,05,17,15.80
2010,08,11,05,18,15.80
2010,08,11,05,19,15.80
2010,08,11,05,20,15.80
2010,08,11,05,21,15.80
2010,08,11,05,22,15.80
2010,08,11,05,23,15.80
2010,08,11,05,24,15.80
2010,08,11,05,25,15.80
2010,08,11,05,26,15.80
2010,08,11,05,27,15.80
2010,08,11,05,28,15.80
2010,08,11,05,29,15.80
2010,08,11,05,30,15.80
2010,08,11,05,31,15.80
2010,08,11,05,32,15.80
2010,08,11,05,33,15.80
2010,08,11,05,34,15.80
2010,08,11,05,35,15.80
2010,08,11,05,36,15.80
2010,08,11,05,37,15.80
2010,08,11,05,38,15.80
2010,08,11,05,39,15.80
2010,08,11,05,40,15.80
2010,08,11,05,41,15.80
2010,08,11,05,42,15.80
2010,08,11,05,43,15.80
2010,08,11,05,44,15.80
2010,08,11,05,45,15.80
2010,08,11,05,46,15.80
2010,08,11,05,47,15.80
2010,08,11,05,48,15.80
2010,08,11,05,49,15.80
2010,08,11,05,50,15.80
2010,08,11,05,51,15.80
2010,08,11,05,52,15.80
2010,08,11,05,53,15.80
2010,08,11,05,54,15.80
2010,08,11,05,55,15.80
2010,08,11,05,56,15.80
2010,08,11,08,46,16.60
2010,08,11,08,47,16.60
2010,08,11,08,48,16.60
2010,08,11,08,49,16.60
2010,08,11,08,50,16.60
2010,08,11,08,51,16.60
2010,08,11,08,52,16.60
2010,08,11,08,53,16.60
2010,08,11,08,54,16.60
2010,08,11,08,55,16.60
2010,08,11,08,56,16.60
2010,08,11,08,57,16.60
2010,08,11,08,58,16.60
2010,08,11,08,59,16.70
2010,08,11,09,00,16.70
2010,08,11,09,01,16.70
2010,08,11,09,02,16.80
2010,08,11,09,03,16.80
2010,08,11,09,04,16.80
2010,08,11,09,05,16.80
2010,08,11,09,06,16.80
2010,08,11,09,07,16.80
2010,08,11,09,08,16.80
2010,08,11,09,09,16.80
2010,08,11,09,10,16.80
2010,08,11,09,11,16.80
2010,08,11,09,12,16.80
2010,08,11,09,13,16.80
2010,08,11,09,14,16.80
2010,08,11,09,15,16.90
2010,08,11,09,16,16.90
2010,08,11,09,17,17.00
2010,08,11,09,18,17.10
2010,08,11,09,19,17.20
2010,08,11,09,20,17.30
2010,08,11,09,21,17.20
2010,08,11,09,22,17.20
2010,08,11,09,23,17.20
2010,08,11,09,24,17.20
2010,08,11,09,25,17.20
2010,08,11,09,26,17.20
2010,08,11,09,27,17.20
2010,08,11,09,28,17.20
2010,08,11,09,29,17.30
2010,08,11,09,30,17.20
2010,08,11,09,31,17.20
2010,08,11,09,32,17.20
2010,08,11,09,33,17.10
2010,08,11,09,34,17.10
2010,08,11,09,35,17.10
2010,08,11,09,36,17.10
2010,08,11,09,37,17.10
2010,08,11,09,38,17.10
2010,08,11,09,39,17.10
2010,08,11,09,40,17.00
2010,08,11,09,41,17.10
2010,08,11,09,42,17.10
2010,08,11,09,43,17.20
2010,08,11,09,44,17.20
2010,08,11,09,45,17.20
2010,08,11,09,46,17.20
2010,08,11,09,47,17.20
2010,08,11,09,48,17.20
2010,08,11,09,49,17.10
2010,08,11,09,50,17.10
2010,08,11,09,51,17.10
2010,08,11,09,52,17.10
2010,08,11,09,53,17.10
2010,08,11,09,54,17.10
2010,08,11,09,55,17.20
2010,08,11,09,56,17.20
2010,08,11,09,57,17.20
2010,08,11,09,58,17.20
2010,08,11,09,59,17.20
2010,08,11,10,00,17.10
2010,08,11,10,01,17.10
2010,08,11,10,02,17.10
2010,08,11,10,03,17.20
2010,08,11,10,04,17.20
2010,08,11,10,05,17.30
2010,08,11,10,06,17.30
2010,08,11,10,07,17.30
2010,08,11,10,08,17.30
2010,08,11,10,09,17.20
2010,08,11,10,10,17.20
2010,08,11,10,11,17.20
2010,08,11,10,12,17.20
2010,08,11,10,13,17.20
2010,08,11,10,14,17.20
2010,08,11,10,15,17.20
2010,08,11,10,16,17.20
2010,08,11,10,17,17.20
2010,08,11,10,18,17.20
2010,08,11,10,19,17.20
2010,08,11,10,20,17.20
2010,08,11,10,21,17.20
2010,08,11,10,22,17.20
2010,08,11,10,23,17.10
2010,08,11,10,24,17.10
2010,08,11,10,25,17.10
2010,08,11,10,26,17.10
2010,08,11,10,27,17.20
2010,08,11,10,28,17.30
2010,08,11,10,29,17.30
2010,08,11,10,30,17.30
2010,08,11,10,31,17.30
2010,08,11,10,32,17.30
2010,08,11,10,33,17.40
2010,08,11,10,34,17.40
2010,08,11,10,35,17.50
2010,08,11,10,36,17.60
2010,08,11,10,37,17.60
2010,08,11,10,38,17.60
2010,08,11,10,39,17.60
2010,08,11,10,40,17.50
2010,08,11,10,41,17.40
2010,08,11,10,42,17.40
2010,08,11,10,43,17.30
2010,08,11,10,44,17.30
2010,08,11,10,45,17.30
2010,08,11,10,46,17.30
2010,08,11,10,47,17.20
2010,08,11,10,48,17.30
2010,08,11,10,49,17.20
2010,08,11,10,50,17.20
2010,08,11,10,51,17.20
2010,08,11,10,52,17.20
2010,08,11,10,53,17.20
2010,08,11,10,54,17.20
2010,08,11,10,55,17.30
2010,08,11,10,56,17.30
2010,08,11,10,57,17.40
2010,08,11,10,58,17.40
2010,08,11,10,59,17.40
2010,08,11,11,00,17.50
2010,08,11,11,01,17.50
2010,08,11,11,02,17.50
2010,08,11,11,03,17.50
2010,08,11,11,04,17.60
2010,08,11,11,05,17.60
2010,08,11,11,06,17.60
2010,08,11,11,07,17.60
2010,08,11,11,08,17.70
2010,08,11,11,09,17.70
2010,08,11,11,10,17.70
2010,08,11,11,11,17.70
2010,08,11,11,12,17.60
2010,08,11,11,13,17.60
2010,08,11,11,14,17.60
2010,08,11,11,15,17.60
2010,08,11,11,16,17.50
2010,08,11,11,17,17.40
2010,08,11,11,18,17.30
2010,08,11,11,19,17.30
2010,08,11,11,20,17.30
2010,08,11,11,21,17.30
2010,08,11,11,22,17.30
2010,08,11,11,23,17.30
2010,08,11,11,24,17.30
2010,08,11,11,25,17.20
2010,08,11,11,26,17.20
2010,08,11,11,27,17.20
2010,08,11,11,28,17.10
2010,08,11,11,29,17.10
2010,08,11,11,30,17.10
2010,08,11,11,31,17.10
2010,08,11,11,32,17.00
2010,08,11,11,33,16.90
2010,08,11,11,34,16.90
2010,08,11,11,35,16.90
2010,08,11,11,36,16.90
2010,08,11,11,37,16.90
2010,08,11,11,38,16.90
2010,08,11,11,39,16.90
2010,08,11,11,40,17.00
2010,08,11,11,41,17.00
2010,08,11,11,42,17.10
2010,08,11,11,43,17.10
2010,08,11,11,44,17.10
2010,08,11,11,45,17.20
2010,08,11,11,46,17.10
2010,08,11,11,47,17.10
2010,08,11,11,48,17.20
2010,08,11,11,49,17.20
2010,08,11,11,50,17.10
2010,08,11,11,51,17.10
2010,08,11,11,52,17.00
2010,08,11,11,53,17.00
2010,08,11,11,54,17.00
2010,08,11,11,55,17.00
2010,08,11,11,56,17.10
2010,08,11,11,57,17.10
2010,08,11,11,58,17.10
2010,08,11,11,59,17.10
2010,08,11,12,00,17.20
2010,08,11,12,01,17.20
2010,08,11,12,02,17.20
2010,08,11,12,03,17.20
2010,08,11,12,04,17.10
2010,08,11,12,05,17.10
2010,08,11,12,06,17.10
2010,08,11,12,07,17.20
2010,08,11,12,08,17.30
2010,08,11,12,09,17.30
2010,08,11,12,10,17.30
2010,08,11,12,11,17.40
2010,08,11,12,12,17.40
2010,08,11,12,13,17.40
2010,08,11,12,14,17.40
2010,08,11,12,15,17.30
2010,08,11,12,16,17.30
2010,08,11,12,17,17.20
2010,08,11,12,18,17.20
2010,08,11,12,19,17.20
2010,08,11,12,20,17.30
2010,08,11,12,21,17.40
2010,08,11,12,22,17.50
2010,08,11,12,23,17.60
2010,08,11,12,24,17.70
2010,08,11,12,25,17.70
2010,08,11,12,26,17.60
2010,08,11,12,27,17.60
2010,08,11,12,28,17.50
2010,08,11,12,29,17.50
2010,08,11,12,30,17.60
2010,08,11,12,31,17.60
2010,08,11,12,32,17.70
2010,08,11,12,33,17.80
2010,08,11,12,34,17.80
2010,08,11,12,35,17.60
2010,08,11,12,36,17.50
2010,08,11,12,37,17.50
2010,08,11,12,38,17.60
2010,08,11,12,39,17.60
2010,08,11,12,40,17.70
2010,08,11,12,41,17.70
2010,08,11,12,42,17.70
2010,08,11,12,43,17.70
2010,08,11,12,44,17.70
2010,08,11,12,45,17.80
2010,08,11,12,46,17.90
2010,08,11,12,47,17.90
2010,08,11,12,48,17.90
2010,08,11,12,49,17.80
2010,08,11,12,50,17.60
2010,08,11,12,51,17.60
2010,08,11,12,52,17.40
2010,08,11,12,53,17.40
2010,08,11,12,54,17.40
2010,08,11,12,55,17.40
2010,08,11,12,56,17.30
2010,08,11,12,57,17.30
2010,08,11,12,58,17.30
2010,08,11,12,59,17.30
2010,08,11,13,00,17.20
2010,08,11,13,01,17.20
2010,08,11,13,02,17.20
2010,08,11,13,03,17.20
2010,08,11,13,04,17.30
2010,08,11,13,05,17.30
2010,08,11,13,06,17.40
2010,08,11,13,07,17.40
2010,08,11,13,08,17.50
2010,08,11,13,09,17.60
2010,08,11,13,10,17.60
2010,08,11,13,11,17.60
2010,08,11,13,12,17.60
2010,08,11,13,13,17.50
2010,08,11,13,14,17.40
2010,08,11,13,15,17.40
2010,08,11,13,16,17.40
2010,08,11,13,17,17.40
2010,08,11,13,18,17.50
2010,08,11,13,19,17.60
2010,08,11,13,20,17.60
2010,08,11,13,21,17.60
2010,08,11,13,22,17.60
2010,08,11,13,23,17.60
2010,08,11,13,24,17.70
2010,08,11,13,25,17.70
2010,08,11,13,26,17.80
2010,08,11,13,27,17.80
2010,08,11,13,28,17.90
2010,08,11,13,29,17.90
2010,08,11,13,30,17.90
2010,08,11,13,31,17.80
2010,08,11,13,32,17.70
2010,08,11,13,33,17.60
2010,08,11,13,34,17.60
2010,08,11,13,35,17.60
2010,08,11,13,36,17.60
2010,08,11,13,37,17.60
2010,08,11,13,38,17.60
2010,08,11,13,39,17.70
2010,08,11,13,40,17.70
2010,08,11,13,41,17.70
2010,08,11,13,42,17.70
2010,08,11,13,43,17.80
2010,08,11,13,44,17.80
2010,08,11,13,45,17.80
2010,08,11,13,46,17.70
2010,08,11,13,47,17.60
2010,08,11,13,48,17.50
2010,08,11,13,49,17.40
2010,08,11,13,50,17.40
2010,08,11,13,51,17.50
2010,08,11,13,52,17.50
2010,08,11,13,53,17.60
2010,08,11,13,54,17.60
2010,08,11,13,55,17.60
2010,08,11,13,56,17.70
2010,08,11,13,57,17.80
2010,08,11,13,58,17.80
2010,08,11,13,59,17.90
2010,08,11,14,00,18.00
2010,08,11,14,01,18.00
2010,08,11,14,02,17.90
2010,08,11,14,03,17.90
2010,08,11,14,04,17.90
2010,08,11,14,05,17.90
2010,08,11,14,06,17.90
2010,08,11,14,07,17.90
2010,08,11,14,08,18.00
2010,08,11,14,09,18.10
2010,08,11,14,10,18.10
2010,08,11,14,11,18.10
2010,08,11,14,12,18.10
2010,08,11,14,13,18.10
2010,08,11,14,14,18.20
2010,08,11,14,15,18.20
2010,08,11,14,16,18.20
2010,08,11,14,17,18.30
2010,08,11,14,18,18.30
2010,08,11,14,19,18.40
2010,08,11,14,20,18.40
2010,08,11,14,21,18.40
2010,08,11,14,22,18.40
2010,08,11,14,23,18.40
2010,08,11,14,24,18.40
2010,08,11,14,25,18.50
2010,08,11,14,26,18.50
2010,08,11,14,27,18.60
2010,08,11,14,28,18.60
2010,08,11,14,29,18.70
2010,08,11,14,30,18.70
2010,08,11,14,31,18.70
2010,08,11,14,32,18.70
2010,08,11,14,33,18.70
2010,08,11,14,34,18.60
2010,08,11,14,35,18.60
2010,08,11,14,36,18.60
2010,08,11,14,37,18.60
2010,08,11,14,38,18.60
2010,08,11,14,39,18.60
2010,08,11,14,40,18.60
2010,08,11,14,41,18.50
2010,08,11,14,42,18.50
2010,08,11,14,43,18.40
2010,08,11,14,44,18.40
2010,08,11,14,45,18.50
2010,08,11,14,46,18.50
2010,08,11,14,47,18.50
2010,08,11,14,48,18.50
2010,08,11,14,49,18.40
2010,08,11,14,50,18.30
2010,08,11,14,51,18.20
2010,08,11,14,52,18.30
2010,08,11,14,53,18.30
2010,08,11,14,54,18.40
2010,08,11,14,55,18.50
2010,08,11,14,56,18.50
2010,08,11,14,57,18.60
2010,08,11,14,58,18.50
2010,08,11,14,59,18.60
2010,08,11,15,00,18.60
2010,08,11,15,01,18.60
2010,08,11,15,02,18.60
2010,08,11,15,03,18.60
2010,08,11,15,04,18.70
2010,08,11,15,05,18.70
2010,08,11,15,06,18.60
2010,08,11,15,07,18.70
2010,08,11,15,08,18.60
2010,08,11,15,09,18.60
2010,08,11,15,10,18.60
2010,08,11,15,11,18.60
2010,08,11,15,12,18.60
2010,08,11,15,13,18.60
2010,08,11,15,14,18.60
2010,08,11,15,15,18.60
2010,08,11,15,16,18.60
2010,08,11,15,17,18.60
2010,08,11,15,18,18.60
2010,08,11,15,19,18.60
2010,08,11,15,20,18.70
2010,08,11,15,21,18.70
2010,08,11,15,22,18.80
2010,08,11,15,23,18.80
2010,08,11,15,24,18.90
2010,08,11,15,25,18.90
2010,08,11,15,26,18.90
2010,08,11,15,27,19.00
2010,08,11,15,28,19.00
2010,08,11,15,29,19.00
2010,08,11,15,30,19.10
2010,08,11,15,31,19.20
2010,08,11,15,32,19.20
2010,08,11,15,33,19.30
2010,08,11,15,34,19.30
2010,08,11,15,35,19.30
2010,08,11,15,36,19.40
2010,08,11,15,37,19.40
2010,08,11,15,38,19.40
2010,08,11,15,39,19.30
2010,08,11,15,40,19.40
2010,08,11,15,41,19.40
2010,08,11,15,42,19.40
2010,08,11,15,43,19.30
2010,08,11,15,44,19.30
2010,08,11,15,45,19.30
2010,08,11,15,46,19.30
2010,08,11,15,47,19.30
2010,08,11,15,48,19.30
2010,08,11,15,49,19.30
2010,08,11,15,50,19.30
2010,08,11,15,51,19.40
2010,08,11,15,52,19.40
2010,08,11,15,53,19.40
2010,08,11,15,54,19.50
2010,08,11,15,55,19.50
2010,08,11,15,56,19.50
2010,08,11,15,57,19.50
2010,08,11,15,58,19.50
2010,08,11,15,59,19.50
2010,08,11,16,00,19.50
2010,08,11,16,01,19.40
2010,08,11,16,02,19.40
2010,08,11,16,03,19.40
2010,08,11,16,04,19.40
2010,08,11,16,05,19.40
2010,08,11,16,06,19.50
2010,08,11,16,07,19.60
2010,08,11,16,08,19.60
2010,08,11,16,09,19.60
2010,08,11,16,10,19.70
2010,08,11,16,11,19.70
2010,08,11,16,12,19.70
2010,08,11,16,13,19.80
2010,08,11,16,14,19.80
2010,08,11,16,15,19.80
2010,08,11,16,16,19.70
2010,08,11,16,17,19.70
2010,08,11,16,18,19.60
2010,08,11,16,19,19.50
2010,08,11,16,20,19.50
2010,08,11,16,21,19.40
2010,08,11,16,22,19.40
2010,08,11,16,23,19.40
2010,08,11,16,24,19.50
2010,08,11,16,25,19.60
2010,08,11,16,26,19.70
2010,08,11,16,27,19.70
2010,08,11,16,28,19.70
2010,08,11,16,29,19.70
2010,08,11,16,30,19.70
2010,08,11,16,31,19.70
2010,08,11,16,32,19.70
2010,08,11,16,33,19.70
2010,08,11,16,34,19.60
2010,08,11,16,35,19.60
2010,08,11,16,36,19.50
2010,08,11,16,37,19.40
2010,08,11,16,38,19.40
2010,08,11,16,39,19.30
2010,08,11,16,40,19.30
2010,08,11,16,41,19.30
2010,08,11,16,42,19.40
2010,08,11,16,43,19.40
2010,08,11,16,44,19.40
2010,08,11,16,45,19.50
2010,08,11,16,46,19.50
2010,08,11,16,47,19.60
2010,08,11,16,48,19.60
2010,08,11,16,49,19.70
2010,08,11,16,50,19.70
2010,08,11,16,51,19.80
2010,08,11,16,52,19.90
2010,08,11,16,53,19.90
2010,08,11,16,54,20.00
2010,08,11,16,55,20.10
2010,08,11,16,56,20.20
2010,08,11,16,57,20.20
2010,08,11,16,58,20.30
2010,08,11,16,59,20.30
2010,08,11,17,00,20.40
2010,08,11,17,01,20.40
2010,08,11,17,02,20.50
2010,08,11,17,03,20.50
2010,08,11,17,04,20.40
2010,08,11,17,05,20.40
2010,08,11,17,06,20.40
2010,08,11,17,07,20.40
2010,08,11,17,08,20.40
2010,08,11,17,09,20.30
2010,08,11,17,10,20.30
2010,08,11,17,11,20.20
2010,08,11,17,12,20.20
2010,08,11,17,13,20.20
2010,08,11,17,14,20.10
2010,08,11,17,15,20.10
2010,08,11,17,16,20.00
2010,08,11,17,17,20.00
2010,08,11,17,18,19.90
2010,08,11,17,19,19.90
2010,08,11,17,20,19.90
2010,08,11,17,21,20.00
2010,08,11,17,22,20.00
2010,08,11,17,23,20.00
2010,08,11,17,24,20.00
2010,08,11,17,25,20.00
2010,08,11,17,26,20.00
2010,08,11,17,27,20.00
2010,08,11,17,28,20.00
2010,08,11,17,29,20.00
2010,08,11,17,30,20.00
2010,08,11,17,31,20.00
2010,08,11,17,32,20.00
2010,08,11,17,33,20.00
2010,08,11,17,34,20.00
2010,08,11,17,35,20.00
2010,08,11,17,36,20.00
2010,08,11,17,37,20.00
2010,08,11,17,38,20.00
2010,08,11,17,39,20.00
2010,08,11,17,40,20.00
2010,08,11,17,41,20.00
2010,08,11,17,42,20.00
2010,08,11,17,43,19.90
2010,08,11,17,44,19.90
2010,08,11,17,45,19.80
2010,08,11,17,46,19.80
2010,08,11,17,47,19.80
2010,08,11,17,48,19.80
2010,08,11,17,49,19.70
2010,08,11,17,50,19.70
2010,08,11,17,51,19.70
2010,08,11,17,52,19.70
2010,08,11,17,53,19.70
2010,08,11,17,54,19.70
2010,08,11,17,55,19.70
2010,08,11,17,56,19.70
2010,08,11,17,57,19.70
2010,08,11,17,58,19.60
2010,08,11,17,59,19.60
2010,08,11,18,00,19.60
2010,08,11,18,01,19.60
2010,08,11,18,02,19.50
2010,08,11,18,03,19.50
2010,08,11,18,04,19.50
2010,08,11,18,05,19.50
2010,08,11,18,06,19.40
2010,08,11,18,07,19.40
2010,08,11,18,08,19.40
2010,08,11,18,09,19.50
2010,08,11,18,10,19.50
2010,08,11,18,11,19.50
2010,08,11,18,12,19.60
2010,08,11,18,13,19.60
2010,08,11,18,14,19.60
2010,08,11,18,15,19.60
2010,08,11,18,16,19.60
2010,08,11,18,17,19.60
2010,08,11,18,18,19.60
2010,08,11,18,19,19.70
2010,08,11,18,20,19.70
2010,08,11,18,21,19.70
2010,08,11,18,22,19.60
2010,08,11,18,23,19.60
2010,08,11,18,24,19.60
2010,08,11,18,25,19.70
2010,08,11,18,26,19.70
2010,08,11,18,27,19.70
2010,08,11,18,28,19.70
2010,08,11,18,29,19.60
2010,08,11,18,30,19.60
2010,08,11,18,31,19.50
2010,08,11,18,32,19.50
2010,08,11,18,33,19.40
2010,08,11,18,34,19.40
2010,08,11,18,35,19.40
2010,08,11,18,36,19.30
2010,08,11,18,37,19.30
2010,08,11,18,38,19.30
2010,08,11,18,39,19.30
2010,08,11,18,40,19.30
2010,08,11,18,41,19.30
2010,08,11,18,42,19.30
2010,08,11,18,43,19.30
2010,08,11,18,44,19.40
2010,08,11,18,45,19.40
2010,08,11,18,46,19.40
2010,08,11,18,47,19.40
2010,08,11,18,48,19.50
2010,08,11,18,49,19.60
2010,08,11,18,50,19.60
2010,08,11,18,51,19.60
2010,08,11,18,52,19.60
2010,08,11,18,53,19.60
2010,08,11,18,54,19.60
2010,08,11,18,55,19.70
2010,08,11,18,56,19.70
2010,08,11,18,57,19.70
2010,08,11,18,58,19.70
2010,08,11,18,59,19.70
2010,08,11,19,00,19.70
2010,08,11,19,01,19.70
2010,08,11,19,02,19.80
2010,08,11,19,03,19.80
2010,08,11,19,04,19.90
2010,08,11,19,05,20.00
2010,08,11,19,06,20.00
2010,08,11,19,07,20.10
2010,08,11,19,08,20.10
2010,08,11,19,09,20.20
2010,08,11,19,10,20.30
2010,08,11,19,11,20.30
2010,08,11,19,12,20.30
2010,08,11,19,13,20.30
2010,08,11,19,14,20.40
2010,08,11,19,15,20.40
2010,08,11,19,16,20.40
2010,08,11,19,17,20.40
2010,08,11,19,18,20.40
2010,08,11,19,19,20.40
2010,08,11,19,20,20.50
2010,08,11,19,21,20.60
2010,08,11,19,22,20.60
2010,08,11,19,23,20.60
2010,08,11,19,24,20.60
2010,08,11,19,25,20.60
2010,08,11,19,26,20.60
2010,08,11,19,27,20.50
2010,08,11,19,28,20.50
2010,08,11,19,29,20.50
2010,08,11,19,30,20.50
2010,08,11,19,31,20.50
2010,08,11,19,32,20.50
2010,08,11,19,33,20.50
2010,08,11,19,34,20.50
2010,08,11,19,35,20.50
2010,08,11,19,36,20.50
2010,08,11,19,37,20.50
2010,08,11,19,38,20.40
2010,08,11,19,39,20.40
2010,08,11,19,40,20.40
2010,08,11,19,41,20.40
2010,08,11,19,42,20.40
2010,08,11,19,43,20.40
2010,08,11,19,44,20.40
2010,08,11,19,45,20.40
2010,08,11,19,46,20.30
2010,08,11,19,47,20.30
2010,08,11,19,48,20.30
2010,08,11,19,49,20.30
2010,08,11,19,50,20.30
2010,08,11,19,51,20.30
2010,08,11,19,52,20.30
2010,08,11,19,53,20.20
2010,08,11,19,54,20.20
2010,08,11,19,55,20.20
2010,08,11,19,56,20.20
2010,08,11,19,57,20.30
2010,08,11,19,58,20.30
2010,08,11,19,59,20.30
2010,08,11,20,00,20.30
2010,08,11,20,01,20.30
2010,08,11,20,02,20.20
2010,08,11,20,03,20.20
2010,08,11,20,04,20.20
2010,08,11,20,05,20.20
2010,08,11,20,06,20.20
2010,08,11,20,07,20.20
2010,08,11,20,08,20.20